Location: Newark
(0.5300°S, 127.4800°E)
Time: 03:07:26
(UTC+00:00)

Tiros 1 - Visible Passes

Search period start: 20 September 2019 00:00
Search period end: 30 September 2019 00:00
Orbit: 630 x 664 km, 48.4° (Epoch: 18 September)

Date Brightness Start Highest point End Pass type
(mag) Time Alt. Az. Time Alt. Az. Time Alt. Az.
24 Sep 9.6 11:21:39 10° NNW 11:22:04 12° NNW 11:22:04 12° NNW visible
25 Sep 9.1 10:08:19 10° NNE 10:09:58 12° NE 10:10:17 12° NE visible
25 Sep 9.9 11:47:31 10° NW 11:48:01 13° NW 11:48:01 13° NW visible
26 Sep 7.6 10:31:45 10° NNW 10:36:01 38° NE 10:36:26 37° ENE visible
27 Sep 7.5 10:57:28 10° NW 11:02:00 59° SW 11:02:46 51° S visible
28 Sep 7.8 09:41:51 10° NNW 09:46:01 33° NE 09:50:11 10° ESE visible
28 Sep 9.5 11:24:55 10° W 11:28:02 18° SW 11:29:17 16° SSW visible
29 Sep 7.4 10:07:26 10° NW 10:12:00 68° SW 10:16:36 10° SSE visible
29 Sep 9.8 20:39:20 10° S 20:42:44 19° SE 20:46:10 10° E visible
